Time,TemperatureF,DewpointF,PressureIn,WindDirection,WindDirectionDegrees,WindSpeedMPH,WindSpeedGustMPH,Humidity,HourlyPrecipIn,Conditions,Clouds,dailyrainin,SoftwareType,DateUTC
2013-02-08 02:03:00,46.1,43.0,29.85,WSW,240,2.0,2.0,89,0.05,,,0.03,Wunderground v.1.15,2013-02-08 07:03:00,
2013-02-08 02:13:00,45.6,42.8,29.85,WSW,257,3.0,6.0,90,0.04,,,0.03,Wunderground v.1.15,2013-02-08 07:13:00,
2013-02-08 02:23:00,45.6,43.4,29.85,WSW,248,5.0,6.0,92,0.04,,,0.04,Wunderground v.1.15,2013-02-08 07:23:00,
2013-02-08 02:33:00,45.2,43.0,29.86,NW,318,5.0,5.0,92,0.05,,,0.05,Wunderground v.1.15,2013-02-08 07:33:00,
2013-02-08 02:43:00,44.3,41.8,29.86,NW,313,5.0,8.0,91,0.04,,,0.05,Wunderground v.1.15,2013-02-08 07:43:00,
2013-02-08 02:53:00,43.2,40.8,29.87,West,280,6.0,8.0,91,0.00,,,0.06,Wunderground v.1.15,2013-02-08 07:53:00,
2013-02-08 03:03:00,42.4,40.0,29.88,WNW,295,5.0,5.0,91,0.00,,,0.06,Wunderground v.1.15,2013-02-08 08:03:00,
2013-02-08 03:13:00,41.8,39.6,29.88,North,360,5.0,6.0,92,0.04,,,0.07,Wunderground v.1.15,2013-02-08 08:13:00,
2013-02-08 03:23:00,40.9,38.8,29.88,NNW,342,5.0,9.0,92,0.04,,,0.08,Wunderground v.1.15,2013-02-08 08:23:00,
2013-02-08 03:33:00,40.0,37.9,29.88,North,360,7.0,7.0,92,0.04,,,0.08,Wunderground v.1.15,2013-02-08 08:33:00,
2013-02-08 03:43:00,39.4,37.3,29.89,NW,323,5.0,5.0,92,0.04,,,0.09,Wunderground v.1.15,2013-02-08 08:43:00,
2013-02-08 03:53:00,38.9,36.8,29.90,West,279,5.0,7.0,92,0.00,,,0.09,Wunderground v.1.15,2013-02-08 08:53:00,
2013-02-08 04:03:00,38.2,35.8,29.90,NNW,335,5.0,8.0,91,0.00,,,0.09,Wunderground v.1.15,2013-02-08 09:03:00,
2013-02-08 04:13:00,37.3,34.9,29.91,WSW,258,5.0,5.0,91,0.00,,,0.10,Wunderground v.1.15,2013-02-08 09:13:00,
2013-02-08 04:23:00,36.7,34.6,29.91,WSW,253,6.0,6.0,92,0.00,,,0.10,Wunderground v.1.15,2013-02-08 09:23:00,
2013-02-08 04:33:00,36.5,34.1,29.91,WNW,294,6.0,6.0,91,0.00,,,0.10,Wunderground v.1.15,2013-02-08 09:33:00,
2013-02-08 04:43:00,36.4,34.3,29.91,WNW,283,5.0,5.0,92,0.00,,,0.10,Wunderground v.1.15,2013-02-08 09:43:00,
2013-02-08 04:53:00,36.2,34.1,29.92,West,269,4.0,5.0,92,0.00,,,0.10,Wunderground v.1.15,2013-02-08 09:53:00,
2013-02-08 05:13:00,35.5,33.1,29.93,NNW,339,5.0,11.0,91,0.00,,,0.10,Wunderground v.1.15,2013-02-08 10:13:00,
2013-02-08 05:23:00,35.2,32.8,29.94,NNW,330,6.0,6.0,91,0.00,,,0.10,Wunderground v.1.15,2013-02-08 10:23:00,
2013-02-08 05:33:00,35.1,32.7,29.94,West,271,6.0,9.0,91,0.00,,,0.10,Wunderground v.1.15,2013-02-08 10:33:00,
2013-02-08 05:43:00,34.9,32.5,29.95,NNW,343,6.0,6.0,91,0.00,,,0.10,Wunderground v.1.15,2013-02-08 10:43:00,
2013-02-08 05:53:00,34.6,32.2,29.95,NNW,340,8.0,8.0,91,0.00,,,0.10,Wunderground v.1.15,2013-02-08 10:53:00,
2013-02-08 06:03:00,34.5,32.1,29.96,NW,316,5.0,5.0,91,0.00,,,0.10,Wunderground v.1.15,2013-02-08 11:03:00,
2013-02-08 06:13:00,34.2,31.8,29.96,NNE,14,8.0,8.0,91,0.00,,,0.10,Wunderground v.1.15,2013-02-08 11:13:00,
2013-02-08 06:23:00,33.9,31.3,29.97,WNW,290,6.0,6.0,90,0.00,,,0.10,Wunderground v.1.15,2013-02-08 11:23:00,
2013-02-08 06:33:00,33.9,31.0,29.97,WNW,291,7.0,7.0,89,0.00,,,0.10,Wunderground v.1.15,2013-02-08 11:33:00,
2013-02-08 06:43:00,33.9,31.0,29.98,West,277,5.0,7.0,89,0.00,,,0.10,Wunderground v.1.15,2013-02-08 11:43:00,
2013-02-08 06:53:00,33.7,30.8,29.98,North,349,8.0,8.0,89,0.00,,,0.10,Wunderground v.1.15,2013-02-08 11:53:00,
2013-02-08 07:03:00,33.5,30.6,29.99,NW,322,6.0,7.0,89,0.00,,,0.10,Wunderground v.1.15,2013-02-08 12:03:00,
2013-02-08 07:13:00,33.4,30.5,29.99,North,350,6.0,6.0,89,0.00,,,0.10,Wunderground v.1.15,2013-02-08 12:13:00,
2013-02-08 07:23:00,33.4,30.5,30.00,NNW,342,7.0,7.0,89,0.00,,,0.10,Wunderground v.1.15,2013-02-08 12:23:00,
2013-02-08 07:33:00,33.3,30.4,30.00,NNE,19,6.0,10.0,89,0.00,,,0.10,Wunderground v.1.15,2013-02-08 12:33:00,
2013-02-08 07:43:00,33.2,30.3,30.01,WNW,288,6.0,6.0,89,0.00,,,0.10,Wunderground v.1.15,2013-02-08 12:43:00,
2013-02-08 07:53:00,33.2,30.3,30.02,NNW,348,6.0,6.0,89,0.00,,,0.10,Wunderground v.1.15,2013-02-08 12:53:00,
2013-02-08 08:03:00,33.1,30.2,30.03,West,267,7.0,9.0,89,0.00,,,0.10,Wunderground v.1.15,2013-02-08 13:03:00,
2013-02-08 08:13:00,33.0,30.1,30.03,NW,322,8.0,11.0,89,0.00,,,0.10,Wunderground v.1.15,2013-02-08 13:13:00,
2013-02-08 08:23:00,33.1,30.2,30.04,NW,307,6.0,9.0,89,0.00,,,0.10,Wunderground v.1.15,2013-02-08 13:23:00,
2013-02-08 08:33:00,33.0,30.1,30.04,NW,326,6.0,9.0,89,0.00,,,0.10,Wunderground v.1.15,2013-02-08 13:33:00,
2013-02-08 08:43:00,32.9,30.3,30.05,NW,325,6.0,10.0,90,0.00,,,0.10,Wunderground v.1.15,2013-02-08 13:43:00,
2013-02-08 08:53:00,32.8,30.2,30.06,WSW,248,5.0,5.0,90,0.00,,,0.10,Wunderground v.1.15,2013-02-08 13:53:00,
2013-02-08 09:03:00,32.6,30.0,30.06,NW,317,7.0,15.0,90,0.00,,,0.10,Wunderground v.1.15,2013-02-08 14:03:00,
2013-02-08 09:13:00,32.5,29.9,30.07,WNW,286,7.0,7.0,90,0.00,,,0.10,Wunderground v.1.15,2013-02-08 14:13:00,
2013-02-08 09:18:00,32.5,29.6,30.08,NW,311,6.0,7.0,89,0.00,,,0.10,Wunderground v.1.15,2013-02-08 14:18:00,
2013-02-08 09:33:00,32.5,29.9,30.08,NW,306,5.0,5.0,90,0.00,,,0.10,Wunderground v.1.15,2013-02-08 14:33:00,
2013-02-08 09:43:00,32.5,29.6,30.09,NNW,331,6.0,9.0,89,0.00,,,0.10,Wunderground v.1.15,2013-02-08 14:43:00,
2013-02-08 09:53:00,32.5,29.6,30.09,West,268,5.0,5.0,89,0.00,,,0.10,Wunderground v.1.15,2013-02-08 14:53:00,
2013-02-08 10:03:00,32.5,29.6,30.10,NNW,331,6.0,6.0,89,0.00,,,0.10,Wunderground v.1.15,2013-02-08 15:03:00,
2013-02-08 10:13:00,32.3,29.4,30.10,WNW,284,7.0,7.0,89,0.00,,,0.10,Wunderground v.1.15,2013-02-08 15:13:00,
2013-02-08 10:23:00,32.3,29.4,30.10,NW,304,7.0,7.0,89,0.00,,,0.10,Wunderground v.1.15,2013-02-08 15:23:00,
2013-02-08 10:28:00,32.4,29.2,30.11,North,360,7.0,7.0,88,0.00,,,0.10,Wunderground v.1.15,2013-02-08 15:28:00,
2013-02-08 10:43:00,32.5,29.3,30.12,NW,319,6.0,7.0,88,0.00,,,0.10,Wunderground v.1.15,2013-02-08 15:43:00,
2013-02-08 10:53:00,32.6,29.4,30.12,West,270,7.0,7.0,88,0.00,,,0.10,Wunderground v.1.15,2013-02-08 15:53:00,
2013-02-08 11:03:00,32.9,29.7,30.12,WNW,303,4.0,5.0,88,0.00,,,0.10,Wunderground v.1.15,2013-02-08 16:03:00,
2013-02-08 11:13:00,33.0,29.6,30.13,SSW,209,5.0,5.0,87,0.00,,,0.10,Wunderground v.1.15,2013-02-08 16:13:00,
2013-02-08 11:23:00,33.0,29.6,30.14,WNW,290,6.0,6.0,87,0.00,,,0.10,Wunderground v.1.15,2013-02-08 16:23:00,
2013-02-08 11:33:00,32.9,29.5,30.15,NW,309,5.0,5.0,87,0.00,,,0.10,Wunderground v.1.15,2013-02-08 16:33:00,
2013-02-08 11:43:00,32.8,29.4,30.15,WNW,298,9.0,13.0,87,0.00,,,0.10,Wunderground v.1.15,2013-02-08 16:43:00,
2013-02-08 11:48:00,32.6,29.2,30.15,NW,319,7.0,13.0,87,0.00,,,0.10,Wunderground v.1.15,2013-02-08 16:48:00,
2013-02-08 12:03:00,32.6,29.2,30.15,WNW,300,6.0,6.0,87,0.00,,,0.10,Wunderground v.1.15,2013-02-08 17:03:00,
2013-02-08 12:13:00,32.7,29.0,30.15,NW,321,6.0,6.0,86,0.00,,,0.10,Wunderground v.1.15,2013-02-08 17:13:00,
2013-02-08 12:23:00,32.9,28.9,30.15,NNW,339,6.0,6.0,85,0.00,,,0.10,Wunderground v.1.15,2013-02-08 17:23:00,
2013-02-08 12:33:00,33.1,28.8,30.16,NW,308,6.0,6.0,84,0.00,,,0.10,Wunderground v.1.15,2013-02-08 17:33:00,
2013-02-08 12:43:00,33.4,28.8,30.16,NNW,331,6.0,6.0,83,0.00,,,0.10,Wunderground v.1.15,2013-02-08 17:43:00,
2013-02-08 12:53:00,33.6,29.0,30.16,WNW,298,6.0,6.0,83,0.00,,,0.10,Wunderground v.1.15,2013-02-08 17:53:00,
2013-02-08 13:03:00,33.8,29.2,30.16,NW,309,4.0,4.0,83,0.00,,,0.10,Wunderground v.1.15,2013-02-08 18:03:00,
2013-02-08 13:13:00,33.8,28.9,30.16,NNW,338,7.0,7.0,82,0.00,,,0.10,Wunderground v.1.15,2013-02-08 18:13:00,
2013-02-08 13:23:00,33.8,29.2,30.17,West,273,5.0,5.0,83,0.00,,,0.10,Wunderground v.1.15,2013-02-08 18:23:00,
2013-02-08 13:33:00,33.9,29.3,30.17,West,278,5.0,5.0,83,0.00,,,0.10,Wunderground v.1.15,2013-02-08 18:33:00,
2013-02-08 13:43:00,33.9,29.0,30.17,WNW,303,6.0,6.0,82,0.00,,,0.10,Wunderground v.1.15,2013-02-08 18:43:00,
2013-02-08 13:53:00,33.9,29.0,30.17,NW,316,4.0,7.0,82,0.00,,,0.10,Wunderground v.1.15,2013-02-08 18:53:00,
2013-02-08 14:03:00,33.9,28.7,30.18,NNW,327,6.0,6.0,81,0.00,,,0.10,Wunderground v.1.15,2013-02-08 19:03:00,
2013-02-08 14:13:00,33.8,28.3,30.18,NW,323,6.0,6.0,80,0.00,,,0.10,Wunderground v.1.15,2013-02-08 19:13:00,
2013-02-08 14:23:00,33.8,28.3,30.18,NW,308,7.0,9.0,80,0.00,,,0.10,Wunderground v.1.15,2013-02-08 19:23:00,
2013-02-08 14:33:00,33.7,27.9,30.18,NNW,339,9.0,9.0,79,0.00,,,0.10,Wunderground v.1.15,2013-02-08 19:33:00,
2013-02-08 14:43:00,33.8,28.0,30.18,NNE,14,7.0,7.0,79,0.00,,,0.10,Wunderground v.1.15,2013-02-08 19:43:00,
2013-02-08 14:53:00,33.9,28.1,30.18,NW,314,6.0,9.0,79,0.00,,,0.10,Wunderground v.1.15,2013-02-08 19:53:00,
2013-02-08 15:03:00,34.0,28.2,30.19,WNW,303,7.0,10.0,79,0.00,,,0.10,Wunderground v.1.15,2013-02-08 20:03:00,
2013-02-08 15:13:00,34.0,28.2,30.19,NW,306,8.0,11.0,79,0.00,,,0.10,Wunderground v.1.15,2013-02-08 20:13:00,
2013-02-08 15:23:00,34.1,28.3,30.20,North,5,6.0,6.0,79,0.00,,,0.10,Wunderground v.1.15,2013-02-08 20:23:00,
2013-02-08 15:33:00,34.0,27.9,30.20,NNW,341,7.0,7.0,78,0.00,,,0.10,Wunderground v.1.15,2013-02-08 20:33:00,
2013-02-08 15:38:00,34.1,28.3,30.21,North,355,6.0,9.0,79,0.00,,,0.10,Wunderground v.1.15,2013-02-08 20:38:00,
2013-02-08 15:53:00,34.3,28.5,30.21,WNW,286,5.0,5.0,79,0.00,,,0.10,Wunderground v.1.15,2013-02-08 20:53:00,
2013-02-08 16:03:00,34.5,28.7,30.22,NNW,346,5.0,5.0,79,0.00,,,0.10,Wunderground v.1.15,2013-02-08 21:03:00,
2013-02-08 16:13:00,34.4,28.6,30.23,West,274,4.0,5.0,79,0.00,,,0.10,Wunderground v.1.15,2013-02-08 21:13:00,
2013-02-08 16:23:00,34.3,28.5,30.23,North,5,4.0,4.0,79,0.00,,,0.10,Wunderground v.1.15,2013-02-08 21:23:00,
2013-02-08 16:33:00,34.4,28.2,30.23,North,351,5.0,7.0,78,0.00,,,0.10,Wunderground v.1.15,2013-02-08 21:33:00,
2013-02-08 16:43:00,34.3,28.2,30.24,NW,325,6.0,6.0,78,0.00,,,0.10,Wunderground v.1.15,2013-02-08 21:43:00,
2013-02-08 16:53:00,34.3,28.2,30.24,NNW,333,5.0,5.0,78,0.00,,,0.10,Wunderground v.1.15,2013-02-08 21:53:00,
2013-02-08 17:03:00,34.3,28.5,30.24,NW,312,4.0,8.0,79,0.00,,,0.10,Wunderground v.1.15,2013-02-08 22:03:00,
2013-02-08 17:13:00,34.3,28.5,30.25,NNW,327,5.0,5.0,79,0.00,,,0.10,Wunderground v.1.15,2013-02-08 22:13:00,
2013-02-08 17:23:00,34.3,28.5,30.25,NW,320,4.0,4.0,79,0.00,,,0.10,Wunderground v.1.15,2013-02-08 22:23:00,
2013-02-08 17:33:00,34.3,28.8,30.26,NNW,346,2.0,2.0,80,0.00,,,0.10,Wunderground v.1.15,2013-02-08 22:33:00,
2013-02-08 17:43:00,34.2,28.7,30.26,NW,317,3.0,3.0,80,0.00,,,0.10,Wunderground v.1.15,2013-02-08 22:43:00,
2013-02-08 17:53:00,34.2,29.0,30.27,NW,319,2.0,2.0,81,0.00,,,0.10,Wunderground v.1.15,2013-02-08 22:53:00,
2013-02-08 18:03:00,34.1,28.3,30.28,NNW,347,4.0,7.0,79,0.00,,,0.10,Wunderground v.1.15,2013-02-08 23:03:00,
2013-02-08 18:13:00,33.7,27.6,30.28,NNW,336,6.0,6.0,78,0.00,,,0.10,Wunderground v.1.15,2013-02-08 23:13:00,
2013-02-08 18:23:00,33.5,27.4,30.29,NNW,348,5.0,6.0,78,0.00,,,0.10,Wunderground v.1.15,2013-02-08 23:23:00,
2013-02-08 18:33:00,33.4,27.6,30.29,NNW,342,4.0,4.0,79,0.00,,,0.10,Wunderground v.1.15,2013-02-08 23:33:00,
2013-02-08 18:43:00,33.3,27.5,30.30,NNW,338,4.0,4.0,79,0.00,,,0.10,Wunderground v.1.15,2013-02-08 23:43:00,
2013-02-08 18:53:00,33.1,27.3,30.31,North,355,2.0,3.0,79,0.00,,,0.10,Wunderground v.1.15,2013-02-08 23:53:00,
2013-02-08 19:03:00,33.0,27.2,30.31,NNW,343,1.0,1.0,79,0.00,,,0.10,Wunderground v.1.15,2013-02-09 00:03:00,
2013-02-08 19:13:00,33.1,27.6,30.32,WNW,302,2.0,3.0,80,0.00,,,0.10,Wunderground v.1.15,2013-02-09 00:13:00,
2013-02-08 19:23:00,33.1,27.9,30.32,NNW,348,4.0,4.0,81,0.00,,,0.10,Wunderground v.1.15,2013-02-09 00:23:00,
2013-02-08 19:33:00,33.0,27.8,30.33,NNW,341,5.0,5.0,81,0.00,,,0.10,Wunderground v.1.15,2013-02-09 00:33:00,
2013-02-08 19:43:00,32.6,26.8,30.33,NW,317,6.0,6.0,79,0.00,,,0.10,Wunderground v.1.15,2013-02-09 00:43:00,
2013-02-08 19:53:00,32.3,26.5,30.34,NW,314,6.0,6.0,79,0.00,,,0.10,Wunderground v.1.15,2013-02-09 00:53:00,
2013-02-08 20:03:00,32.0,26.2,30.35,WNW,297,5.0,5.0,79,0.00,,,0.10,Wunderground v.1.15,2013-02-09 01:03:00,
2013-02-08 20:13:00,31.6,25.5,30.35,WNW,302,4.0,7.0,78,0.00,,,0.10,Wunderground v.1.15,2013-02-09 01:13:00,
2013-02-08 20:23:00,31.3,25.2,30.35,NNW,333,4.0,4.0,78,0.00,,,0.10,Wunderground v.1.15,2013-02-09 01:23:00,
2013-02-08 20:33:00,31.0,24.9,30.34,North,355,6.0,7.0,78,0.00,,,0.10,Wunderground v.1.15,2013-02-09 01:33:00,
2013-02-08 20:43:00,30.7,25.3,30.35,NNW,345,5.0,5.0,80,0.00,,,0.10,Wunderground v.1.15,2013-02-09 01:43:00,
2013-02-08 20:53:00,30.3,25.2,30.35,NNW,347,4.0,4.0,81,0.00,,,0.10,Wunderground v.1.15,2013-02-09 01:53:00,
2013-02-08 21:03:00,30.1,25.0,30.36,NNW,346,5.0,5.0,81,0.00,,,0.10,Wunderground v.1.15,2013-02-09 02:03:00,
2013-02-08 21:13:00,29.9,24.8,30.36,NNW,336,5.0,6.0,81,0.00,,,0.10,Wunderground v.1.15,2013-02-09 02:13:00,
2013-02-08 21:23:00,29.6,24.8,30.36,NNW,348,4.0,4.0,82,0.00,,,0.10,Wunderground v.1.15,2013-02-09 02:23:00,
2013-02-08 21:33:00,29.3,24.5,30.36,North,349,4.0,5.0,82,0.00,,,0.10,Wunderground v.1.15,2013-02-09 02:33:00,
2013-02-08 21:38:00,29.2,24.4,30.36,NNW,345,4.0,5.0,82,0.00,,,0.10,Wunderground v.1.15,2013-02-09 02:38:00,
2013-02-08 21:53:00,29.0,24.2,30.37,NNW,330,2.0,2.0,82,0.00,,,0.10,Wunderground v.1.15,2013-02-09 02:53:00,
2013-02-08 22:03:00,28.9,24.1,30.38,NW,325,1.0,1.0,82,0.00,,,0.10,Wunderground v.1.15,2013-02-09 03:03:00,
2013-02-08 22:13:00,28.6,23.8,30.37,NW,325,0.0,0.0,82,0.00,,,0.10,Wunderground v.1.15,2013-02-09 03:13:00,
2013-02-08 22:23:00,28.5,24.0,30.37,NW,325,0.0,0.0,83,0.00,,,0.10,Wunderground v.1.15,2013-02-09 03:23:00,
2013-02-08 22:33:00,28.2,24.0,30.37,NW,305,1.0,1.0,84,0.00,,,0.10,Wunderground v.1.15,2013-02-09 03:33:00,
2013-02-08 22:38:00,28.1,23.6,30.37,NW,307,1.0,1.0,83,0.00,,,0.10,Wunderground v.1.15,2013-02-09 03:38:00,
2013-02-08 22:53:00,28.0,23.8,30.36,NW,311,1.0,3.0,84,0.00,,,0.10,Wunderground v.1.15,2013-02-09 03:53:00,
2013-02-08 23:03:00,28.1,24.2,30.36,NNE,31,1.0,3.0,85,0.00,,,0.10,Wunderground v.1.15,2013-02-09 04:03:00,
2013-02-08 23:13:00,28.4,24.2,30.36,North,360,2.0,2.0,84,0.00,,,0.10,Wunderground v.1.15,2013-02-09 04:13:00,
2013-02-08 23:23:00,28.6,24.7,30.37,North,360,1.0,1.0,85,0.00,,,0.10,Wunderground v.1.15,2013-02-09 04:23:00,
2013-02-08 23:33:00,28.8,24.9,30.38,North,355,1.0,3.0,85,0.00,,,0.10,Wunderground v.1.15,2013-02-09 04:33:00,
2013-02-08 23:43:00,28.9,24.1,30.38,North,351,3.0,3.0,82,0.00,,,0.10,Wunderground v.1.15,2013-02-09 04:43:00,
2013-02-08 23:53:00,28.8,23.1,30.39,North,360,4.0,4.0,79,0.00,,,0.10,Wunderground v.1.15,2013-02-09 04:53:00,